San Diego, CA

1:39 PM PST on February 10, 2016 (GMT -0800)
Montgomery

Weather History for KMYF - April, 2014

Change the Weather History Date:

Wednesday, April 16, 2014

  Actual Average (KSAN) Record (KSAN)
Temperature  
Mean Temperature 62 °F 62 °F  
Max Temperature 70 °F 68 °F 87 °F (1948)
Min Temperature 55 °F 56 °F 45 °F (1887)
Degree Days  
Heating Degree Days 3 4  
Month to date heating degree days 69  
Since 1 July heating degree days 1105  
Cooling Degree Days 0 0  
Month to date cooling degree days 0  
Year to date cooling degree days 10  
Growing Degree Days 12 (Base 50)    
Moisture  
Dew Point 52 °F    
Average Humidity 77    
Maximum Humidity 88    
Minimum Humidity 51    
Precipitation  
Precipitation 0.00 in 0.02 in 0.86 in (1917)
Month to date precipitation 0.51  
Year to date precipitation 6.57  
Snow  
Snow 0.00 in - - ()
Month to date snowfall  
Since 1 July snowfall  
Snow Depth -    
Sea Level Pressure  
Sea Level Pressure 29.85 in    
Wind  
Wind Speed 3 mph (SSW)    
Max Wind Speed 10 mph    
Max Gust Speed -    
Visibility 8 miles    
Events      
T = Trace of Precipitation, MM = Missing Value Source: NWS Daily Summary

Daily Weather History Graph

Daily Weather History Graph

Search for Another Location

Airport or City:

Trip Planner

Search our weather history database for the weather conditions in past years. The results will help you decide how hot, cold, wet, or windy it might be!

Date:

Astronomy

Apr. 16, 2014 Rise Set
Actual Time 6:17 AM PDT 7:19 PM PDT
Civil Twilight 5:52 AM PDT 7:44 PM PDT
Nautical Twilight 5:22 AM PDT 8:15 PM PDT
Astronomical Twilight 4:51 AM PDT 8:46 PM PDT
Moon 9:03 PM PDT (4/16) 7:11 AM PDT (4/16)
Length of Visible Light 13h 52m
Length of Day
13h 01m
Full, 98% of the Moon is Illuminated
Apr 16
Full
Apr 22
Last Quarter
Apr 28
New
May 6
First Quarter
May 14
Full

Hourly Weather History & Observations

Time (PDT) Temp. Dew Point Humidity Pressure Visibility Wind Dir Wind Speed Gust Speed Precip Events Conditions
12:02 AM 57.2 °F 53.6 °F 88% 29.90 in 9.0 mi Calm Calm - N/A   Mostly Cloudy
12:53 AM 57.0 °F 53.1 °F 87% 29.88 in 7.0 mi SSE 5.8 mph - N/A   Overcast
1:08 AM 57.2 °F 53.6 °F 88% 29.88 in 7.0 mi Variable 3.5 mph - N/A   Overcast
1:53 AM 57.0 °F 53.1 °F 87% 29.87 in 7.0 mi SSW 4.6 mph - N/A   Overcast
2:53 AM 57.0 °F 52.0 °F 83% 29.86 in 7.0 mi SSW 3.5 mph - N/A   Overcast
3:53 AM 55.9 °F 52.0 °F 87% 29.86 in 8.0 mi South 5.8 mph - N/A   Overcast
4:53 AM 55.9 °F 52.0 °F 87% 29.85 in 7.0 mi Calm Calm - N/A   Overcast
5:53 AM 55.9 °F 51.1 °F 84% 29.86 in 7.0 mi Calm Calm - N/A   Overcast
6:03 AM 55.4 °F 51.8 °F 88% 29.86 in 7.0 mi SSW 3.5 mph - N/A   Overcast
6:10 AM 55.4 °F 51.8 °F 88% 29.86 in 7.0 mi Calm Calm - N/A   Overcast
6:53 AM 55.9 °F 51.1 °F 84% 29.86 in 5.0 mi Calm Calm - N/A   Haze
7:00 AM 55.4 °F 51.8 °F 88% 29.86 in 5.0 mi Calm Calm - N/A   Haze
7:39 AM 57.2 °F 51.8 °F 82% 29.86 in 5.0 mi South 4.6 mph - N/A   Haze
7:53 AM 57.0 °F 51.1 °F 81% 29.86 in 6.0 mi Calm Calm - N/A   Haze
8:53 AM 59.0 °F 51.1 °F 75% 29.86 in 7.0 mi Variable 3.5 mph - N/A   Mostly Cloudy
9:20 AM 59.0 °F 51.8 °F 77% 29.87 in 7.0 mi Calm Calm - N/A   Scattered Clouds
9:53 AM 61.0 °F 52.0 °F 72% 29.87 in 7.0 mi Calm Calm - N/A   Scattered Clouds
11:53 AM 66.9 °F 50.0 °F 54% 29.84 in 10.0 mi South 8.1 mph - N/A   Clear
12:53 PM 69.1 °F 50.0 °F 51% 29.83 in 10.0 mi SSW 6.9 mph - N/A   Clear
1:53 PM 69.1 °F 52.0 °F 54% 29.83 in 10.0 mi WSW 9.2 mph - N/A   Clear
2:53 PM 68.0 °F 51.1 °F 55% 29.82 in 10.0 mi SSW 10.4 mph - N/A   Clear
3:53 PM 66.0 °F 51.1 °F 59% 29.82 in 10.0 mi SW 8.1 mph - N/A   Clear
4:53 PM 64.9 °F 51.1 °F 61% 29.81 in 9.0 mi SSW 9.2 mph - N/A   Clear
5:53 PM 63.0 °F 52.0 °F 67% 29.81 in 9.0 mi SSW 6.9 mph - N/A   Clear
6:53 PM 61.0 °F 52.0 °F 72% 29.82 in 7.0 mi South 6.9 mph - N/A   Clear
7:53 PM 59.0 °F 52.0 °F 78% 29.83 in 8.0 mi SSE 5.8 mph - N/A   Clear
8:53 PM 59.0 °F 52.0 °F 78% 29.85 in 8.0 mi South 4.6 mph - N/A   Clear
9:53 PM 59.0 °F 53.1 °F 81% 29.87 in 7.0 mi South 4.6 mph - N/A   Clear
10:12 PM 57.2 °F 53.6 °F 88% 29.88 in 7.0 mi South 6.9 mph - N/A   Mostly Cloudy
10:53 PM 57.9 °F 53.1 °F 84% 29.88 in 7.0 mi SSW 4.6 mph - N/A   Overcast
11:53 PM 59.0 °F 53.1 °F 81% 29.88 in 8.0 mi South 5.8 mph - N/A   Overcast